This is the latest recevied weather packets stored in our database for station/object E20YUC-1. If no packets are shown the sender has not sent any weather packets the latest 1 day(s).
| Time | Temp. | Humidity | Pressure | Rain* | Wind** | Luminosity | Snow |
|---|---|---|---|---|---|---|---|
| 1778107132 | 28.89° C | 77% | 995.7 hPa | 0 mm | 0 m/s | - | - |
| 1778106834 | 28.89° C | 77% | 995.6 hPa | 0 mm | 0 m/s | - | - |
| 1778106232 | 28.89° C | 76% | 995.6 hPa | 0 mm | 0 m/s | - | - |
| 1778105632 | 28.89° C | 76% | 995.4 hPa | 0 mm | 0 m/s | - | - |
| 1778101731 | 28.89° C | 76% | 995.1 hPa | 0 mm | 0 m/s | - | - |
| 1778100833 | 28.89° C | 76% | 995.1 hPa | 0 mm | 0 m/s | - | - |
| 1778100531 | 28.89° C | 76% | 995.1 hPa | 0 mm | 0 m/s | - | - |
| 1778100231 | 28.89° C | 76% | 995.1 hPa | 0 mm | 0 m/s | - | - |
| 1778099631 | 28.89° C | 76% | 994.9 hPa | 0 mm | 0 m/s | - | - |
| 1778095730 | 28.89° C | 75% | 994.8 hPa | 0 mm | 0 m/s | - | - |
| 1778094832 | 28.89° C | 75% | 994.8 hPa | 0 mm | 0 m/s | - | - |
| 1778094230 | 28.89° C | 75% | 994.9 hPa | 0 mm | 0 m/s | - | - |
| 1778093630 | 28.89° C | 75% | 994.9 hPa | 0 mm | 0 m/s | - | - |
| 1778090331 | 29.44° C | 74% | 995.4 hPa | 0 mm | 0 m/s | - | - |
| 1778089129 | 30° C | 74% | 995.7 hPa | 0 mm | 0 m/s | - | - |
| 1778088831 | 30° C | 74% | 995.8 hPa | 0 mm | 0 m/s | - | - |
| 1778088529 | 30° C | 74% | 995.9 hPa | 0 mm | 0 m/s | - | - |
| 1778088229 | 30° C | 73% | 995.8 hPa | 0 mm | 0 m/s | - | - |
| 1778087629 | 0° C | 73% | 995.8 hPa | 0 mm | 0 m/s | - | - |
| 1778083128 | 30.56° C | 72% | 996.2 hPa | 0 mm | 0 m/s | - | - |
| 1778082830 | 30.56° C | 72% | 996.2 hPa | 0 mm | 0 m/s | - | - |
| 1778082228 | 30.56° C | 72% | 996.1 hPa | 0 mm | 0.45 m/s, 22° | - | - |
| 1778081628 | 30.56° C | 72% | 995.9 hPa | 0 mm | 0 m/s | - | - |
| 1778076829 | 31.11° C | 69% | 995.3 hPa | 0 mm | 0 m/s | - | - |
| 1778075927 | 31.67° C | 69% | 995.5 hPa | 0 mm | 0 m/s | - | - |
* Rain latest hour (hover to see other rain measurements)
** Current wind speed in m/s (hover to see current wind gust speed)